Weather History for KRDR - January, 2013

Change the Weather History Date:

Thursday, January 24, 2013

  Actual Average Record
Temperature  
Mean Temperature -3 °F -  
Max Temperature 10 °F 14 °F 35 °F (2006)
Min Temperature -16 °F 0 °F -16 °F (2004)
Degree Days  
Heating Degree Days 68    
Moisture  
Dew Point -6 °F    
Average Humidity 73    
Maximum Humidity 85    
Minimum Humidity 61    
Precipitation  
Precipitation 0.00 in - - ()
Sea Level Pressure  
Sea Level Pressure 30.18 in    
Wind  
Wind Speed 15 mph (South)    
Max Wind Speed 28 mph    
Max Gust Speed 37 mph    
Visibility 6 miles    
Events Snow    
Averages and records for this station are not official NWS values.
T = Trace of Precipitation, MM = Missing Value Source: NWS Daily Summary

Daily Weather History Graph

Daily Weather History Graph

Search for Another Location

Airport or City:

Trip Planner

Search our weather history database for the weather conditions in past years. The results will help you decide how hot, cold, wet, or windy it might be!

Date:

Astronomy

Jan. 24, 2013 Rise Set
Actual Time 8:06 AM CST 5:17 PM CST
Civil Twilight 7:32 AM CST 5:51 PM CST
Nautical Twilight 6:54 AM CST 6:29 PM CST
Astronomical Twilight 6:17 AM CST 7:06 PM CST
Moon 3:18 PM CST (1/24) 6:07 AM CST (1/24)
Length of Visible Light 10h 19m
Length of Day
9h 11m
Waxing Gibbous, 94% of the Moon is Illuminated
Jan 24
Waxing Gibbous
Jan 26
Full
Feb 3
Last Quarter
Feb 10
New
Feb 17
First Quarter

Hourly Weather History & Observations

Time (CST) Temp. Windchill Dew Point Humidity Pressure Visibility Wind Dir Wind Speed Gust Speed Precip Events Conditions
12:55 AM -16.2 °F -26.4 °F -24.7 °F 66% 30.66 in 10.0 mi East 3.5 mph - N/A   Clear
1:55 AM -15.5 °F - -24.9 °F 63% 30.66 in 10.0 mi Calm Calm - N/A   Clear
2:55 AM -15.2 °F -29.5 °F -24.7 °F 62% 30.66 in 10.0 mi SSE 5.8 mph - N/A   Clear
3:55 AM -14.6 °F -28.9 °F -24.3 °F 62% 30.63 in 10.0 mi SSE 5.8 mph - N/A   Clear
4:55 AM -13.7 °F -29.5 °F -23.8 °F 61% 30.60 in 10.0 mi SSE 6.9 mph - N/A   Mostly Cloudy
5:55 AM -12.8 °F -29.8 °F -22.0 °F 64% 30.60 in 10.0 mi South 8.1 mph - N/A   Overcast
6:55 AM -11.9 °F -31.0 °F -20.9 °F 64% 30.57 in 10.0 mi SSE 10.4 mph - N/A   Overcast
7:55 AM -11.4 °F -31.4 °F -19.8 °F 66% 30.51 in 10.0 mi SSE 11.5 mph - N/A   Partly Cloudy
8:55 AM -10.1 °F -31.5 °F -18.6 °F 66% 30.48 in 10.0 mi SE 13.8 mph - N/A   Overcast
9:55 AM -8.3 °F -30.0 °F -16.6 °F 67% 30.47 in 10.0 mi SSE 15.0 mph - N/A   Overcast
10:54 AM -5.8 °F -29.4 °F -14.8 °F 65% 30.44 in 10.0 mi South 19.6 mph 25.3 mph N/A   Scattered Clouds
10:55 AM -5.6 °F -29.1 °F -14.1 °F 67% 30.44 in 10.0 mi SSE 19.6 mph 25.3 mph N/A   Scattered Clouds
11:55 AM -4.2 °F -26.7 °F -13.4 °F 65% 30.39 in 10.0 mi South 18.4 mph - N/A   Partly Cloudy
12:55 PM -2.4 °F -24.3 °F -11.6 °F 65% 30.37 in 10.0 mi SSE 18.4 mph - N/A   Overcast
1:13 PM -2.2 °F -23.5 °F -11.2 °F 66% 30.35 in 10.0 mi SSE 17.3 mph - N/A   Overcast
1:18 PM -2.2 °F -24.7 °F -11.2 °F 66% 30.34 in 10.0 mi SSE 19.6 mph - N/A   Overcast
1:54 PM -2.2 °F -24.1 °F -11.2 °F 66% 30.30 in 10.0 mi SSE 18.4 mph - N/A Snow Light Snow
1:55 PM -1.7 °F -23.4 °F -10.5 °F 66% 30.30 in 10.0 mi SSE 18.4 mph - N/A   Overcast
1:57 PM -2.2 °F -25.7 °F -9.4 °F 71% 30.30 in 5.0 mi South 21.9 mph - N/A Snow Light Snow
2:02 PM -2.2 °F -24.7 °F -9.4 °F 71% 30.29 in 2.5 mi SSE 19.6 mph 26.5 mph N/A Snow Light Snow
2:04 PM -2.2 °F -25.7 °F -9.4 °F 71% 30.28 in 2.0 mi SSE 21.9 mph - N/A Snow Light Snow
2:05 PM -2.2 °F -25.2 °F -9.4 °F 71% 30.28 in 1.8 mi SSE 20.7 mph 27.6 mph N/A Snow Light Snow
2:10 PM -2.2 °F -24.7 °F -9.4 °F 71% 30.27 in 1.2 mi SSE 19.6 mph 27.6 mph N/A Snow Light Snow
2:14 PM -2.2 °F -25.2 °F -9.4 °F 71% 30.27 in 1.0 mi SSE 20.7 mph - N/A Snow Light Snow
2:20 PM -2.2 °F -25.7 °F -9.4 °F 71% 30.27 in 1.0 mi SSE 21.9 mph 28.8 mph N/A Snow Light Snow
2:22 PM -2.2 °F -25.2 °F -7.6 °F 78% 30.26 in 1.0 mi SSE 20.7 mph 28.8 mph N/A Snow Light Snow
2:25 PM -2.2 °F -26.2 °F -7.6 °F 78% 30.26 in 1.2 mi SSE 23.0 mph 28.8 mph N/A Snow Light Snow
2:28 PM -2.2 °F -26.7 °F -7.6 °F 78% 30.26 in 1.5 mi SSE 24.2 mph - N/A Snow Light Snow
2:31 PM -2.2 °F -26.2 °F -7.6 °F 78% 30.25 in 2.0 mi SSE 23.0 mph - N/A Snow Light Snow
2:33 PM -2.2 °F -26.2 °F -7.6 °F 78% 30.25 in 2.5 mi SSE 23.0 mph - N/A   Haze
2:34 PM -2.2 °F -26.2 °F -7.6 °F 78% 30.24 in 3.0 mi SSE 23.0 mph - N/A   Haze
2:36 PM -2.2 °F -26.2 °F -7.6 °F 78% 30.24 in 4.0 mi SSE 23.0 mph - N/A   Haze
2:45 PM -2.2 °F -24.7 °F -7.6 °F 78% 30.24 in 7.0 mi SSE 19.6 mph - N/A   Overcast
2:55 PM -1.5 °F -24.3 °F -8.3 °F 73% 30.22 in 8.0 mi SSE 20.7 mph - 0.00 in   Overcast
3:34 PM -0.4 °F -22.3 °F -7.6 °F 72% 30.19 in 8.0 mi SSE 19.6 mph 26.5 mph N/A Snow Light Snow
3:48 PM -0.4 °F -23.3 °F -7.6 °F 72% 30.18 in 2.5 mi SSE 21.9 mph 29.9 mph N/A Snow Light Snow
3:51 PM -0.4 °F -22.8 °F -7.6 °F 72% 30.17 in 2.5 mi SSE 20.7 mph 29.9 mph N/A Snow Light Snow
3:53 PM -0.4 °F -23.3 °F -7.6 °F 72% 30.18 in 2.5 mi SSE 21.9 mph 29.9 mph N/A Snow Light Snow
3:55 PM -0.4 °F -22.3 °F -7.6 °F 72% 30.18 in 2.5 mi SSE 19.6 mph 29.9 mph 0.00 in Snow Light Snow
4:55 PM 0.5 °F -24.4 °F -7.1 °F 70% 30.07 in 2.5 mi SSE 27.6 mph 36.8 mph 0.00 in Snow Blowing Snow
5:04 PM 1.4 °F -21.0 °F -7.6 °F 66% 30.11 in 3.0 mi SSE 21.9 mph 36.8 mph N/A   Haze
5:15 PM 1.4 °F -21.0 °F -7.6 °F 66% 30.12 in 5.0 mi South 21.9 mph 32.2 mph N/A   Haze
5:24 PM 1.4 °F -19.4 °F -7.6 °F 66% 30.14 in 9.0 mi South 18.4 mph 25.3 mph N/A   Overcast
5:35 PM 1.4 °F -21.0 °F -5.8 °F 72% 30.12 in 8.0 mi SSE 21.9 mph - N/A   Overcast
5:55 PM 1.6 °F -20.7 °F -6.3 °F 69% 30.10 in 5.0 mi South 21.9 mph - N/A   Haze
6:01 PM 1.4 °F -21.4 °F -5.8 °F 72% 30.12 in 6.0 mi South 23.0 mph - N/A Snow Light Snow
6:13 PM 1.4 °F -20.5 °F -5.8 °F 72% 30.14 in 4.0 mi South 20.7 mph - N/A Snow Light Snow
6:23 PM 1.4 °F -20.5 °F -4.0 °F 78% 30.14 in 3.0 mi South 20.7 mph - N/A Snow Light Snow
6:27 PM 3.2 °F -17.1 °F -4.0 °F 72% 30.13 in 3.0 mi South 18.4 mph - N/A Snow Light Snow
6:38 PM 3.2 °F -17.1 °F -4.0 °F 72% 30.12 in 2.5 mi South 18.4 mph - N/A Snow Light Snow
6:46 PM 3.2 °F -18.1 °F -4.0 °F 72% 30.12 in 2.0 mi South 20.7 mph 25.3 mph N/A Snow Light Snow
6:55 PM 2.7 °F -17.2 °F -3.3 °F 76% 30.11 in 2.0 mi South 17.3 mph 25.3 mph 0.00 in Snow Light Snow
7:00 PM 3.2 °F -17.1 °F -2.2 °F 78% 30.11 in 2.0 mi South 18.4 mph - N/A Snow Light Snow
7:03 PM 3.2 °F -18.6 °F -2.2 °F 78% 30.10 in 2.5 mi South 21.9 mph - N/A Snow Light Snow
7:04 PM 3.2 °F -19.0 °F -2.2 °F 78% 30.09 in 2.5 mi South 23.0 mph - N/A Snow Light Snow
7:08 PM 3.2 °F -17.6 °F -2.2 °F 78% 30.08 in 3.0 mi South 19.6 mph - N/A Snow Light Snow
7:10 PM 3.2 °F -17.6 °F -2.2 °F 78% 30.08 in 3.0 mi South 19.6 mph - N/A Snow Light Snow
7:13 PM 3.2 °F -18.6 °F -2.2 °F 78% 30.08 in 4.0 mi South 21.9 mph - N/A   Haze
7:15 PM 3.2 °F -19.0 °F -2.2 °F 78% 30.08 in 4.0 mi South 23.0 mph - N/A   Haze
7:21 PM 3.2 °F -18.1 °F -2.2 °F 78% 30.07 in 4.0 mi South 20.7 mph - N/A   Haze
7:24 PM 3.2 °F -17.1 °F -2.2 °F 78% 30.07 in 4.0 mi South 18.4 mph - N/A   Haze
7:55 PM 3.7 °F -15.8 °F -2.0 °F 77% 30.07 in 6.0 mi South 17.3 mph - 0.00 in   Haze
8:01 PM 3.2 °F -17.6 °F -2.2 °F 78% 30.06 in 5.0 mi South 19.6 mph - N/A Snow Light Snow
8:13 PM 3.2 °F -17.6 °F -0.4 °F 85% 30.04 in 3.0 mi South 19.6 mph - N/A Snow Light Snow
8:15 PM 3.2 °F -17.1 °F -0.4 °F 85% 30.04 in 4.0 mi South 18.4 mph - N/A Snow Light Snow
8:16 PM 3.2 °F -16.5 °F -0.4 °F 85% 30.04 in 4.0 mi South 17.3 mph - N/A   Haze
8:55 PM 4.6 °F -12.8 °F -0.9 °F 78% 30.03 in 8.0 mi South 13.8 mph - 0.00 in   Overcast
9:12 PM 5.0 °F -13.0 °F -0.4 °F 78% 30.01 in 9.0 mi South 15.0 mph - N/A   Overcast
9:55 PM 6.1 °F -12.8 °F 0.7 °F 78% 29.99 in 10.0 mi South 17.3 mph - N/A   Overcast
10:28 PM 6.8 °F -11.8 °F 1.4 °F 79% 29.97 in 10.0 mi South 17.3 mph - N/A   Overcast
10:33 PM 6.8 °F -12.4 °F 1.4 °F 79% 29.97 in 10.0 mi South 18.4 mph - N/A Snow Light Snow
10:40 PM 6.8 °F -12.4 °F 1.4 °F 79% 29.96 in 9.0 mi South 18.4 mph - N/A Snow Light Snow
10:42 PM 6.8 °F -11.8 °F 1.4 °F 79% 29.96 in 9.0 mi South 17.3 mph - N/A Snow Light Snow
10:44 PM 6.8 °F -11.8 °F 1.4 °F 79% 29.96 in 10.0 mi South 17.3 mph - N/A   Overcast
10:54 PM 8.6 °F -9.5 °F 1.4 °F 73% 29.95 in 10.0 mi South 17.3 mph - N/A Snow Light Snow
10:55 PM 7.7 °F -10.7 °F 1.9 °F 77% 29.96 in 10.0 mi South 17.3 mph - 0.00 in   Overcast
11:02 PM 8.6 °F -8.3 °F 3.2 °F 79% 29.95 in 8.0 mi South 15.0 mph - N/A Snow Light Snow
11:14 PM 8.6 °F -8.3 °F 3.2 °F 79% 29.94 in 8.0 mi South 15.0 mph - N/A Snow Light Snow
11:19 PM 8.6 °F -9.5 °F 3.2 °F 79% 29.94 in 9.0 mi South 17.3 mph - N/A   Overcast
11:34 PM 10.4 °F -5.4 °F 3.2 °F 73% 29.94 in 10.0 mi South 13.8 mph - N/A   Overcast
11:38 PM 10.4 °F -6.6 °F 3.2 °F 73% 29.94 in 10.0 mi SSW 16.1 mph - N/A   Overcast
11:43 PM 10.4 °F -6.0 °F 3.2 °F 73% 29.93 in 10.0 mi SSW 15.0 mph - N/A   Overcast
11:55 PM 10.6 °F -6.4 °F 3.9 °F 75% 29.93 in 10.0 mi SSW 16.1 mph - 0.00 in   Overcast
11:58 PM 10.4 °F -7.2 °F 5.0 °F 79% 29.92 in 10.0 mi SSW 17.3 mph - N/A   Overcast
11:59 PM 10.4 °F -7.2 °F 5.0 °F 79% 29.92 in 10.0 mi SSW 17.3 mph - N/A   Overcast